• In Hungary
  • List of Countries
  • For 7 days
  • Water Temperature
  • Satellite Maps
  • Weather Map
  • News
  • Weather Widgets
  • user-avatar
    Login

    Hourly Weather Koniuszowa

    Today, 18 November, Saturday

    Time Temperature Precipitation Wind Pressure Humidity
    00:00 +3°C° 0.3 mm 1 mps 728 mmHg 94%
    01:00 +3°C° 0.3 mm 1 mps 728 mmHg 94%
    02:00 +3°C° 0.3 mm 1 mps 727 mmHg 95%
    03:00 +3°C° 0.3 mm 1 mps 727 mmHg 95%
    04:00 +3°C° 0.3 mm 1 mps 727 mmHg 96%
    05:00 +3°C° 0.2 mm 1 mps 727 mmHg 96%
    06:00 +3°C° 0.2 mm 1 mps 726 mmHg 96%
    07:00 +3°C° 0.2 mm 1 mps 726 mmHg 96%
    08:00 +3°C° 0.2 mm 1 mps 726 mmHg 93%
    09:00 +4°C° 0.2 mm 1 mps 726 mmHg 91%
    10:00 +4°C° 0.2 mm 1 mps 726 mmHg 89%
    11:00 +4°C° 0 mm 1 mps 726 mmHg 87%
    12:00 +5°C° 0 mm 1 mps 725 mmHg 84%
    13:00 +5°C° 0 mm 1 mps 725 mmHg 82%
    14:00 +4°C° 0 mm 1 mps 725 mmHg 83%
    15:00 +4°C° 0 mm 1 mps 724 mmHg 85%
    16:00 +4°C° 0 mm 1 mps 724 mmHg 86%
    17:00 +3°C° 0 mm 1 mps 723 mmHg 87%
    18:00 +3°C° 0 mm 1 mps 723 mmHg 88%
    19:00 +2°C° 0 mm 1 mps 723 mmHg 90%
    20:00 +1°C° 0 mm 2 mps 723 mmHg 89%
    21:00 +1°C° 0 mm 2 mps 722 mmHg 88%
    22:00 -1°C° 0 mm 2 mps 722 mmHg 87%
    23:00 +1°C° 0 mm 2 mps 722 mmHg 87%

    Tomorrow, 19 November, Sunday

    Time Temperature Precipitation Wind Pressure Humidity
    00:00 +1°C° 0 mm 2 mps 721 mmHg 86%
    01:00 +1°C° 0 mm 2 mps 721 mmHg 86%
    02:00 0°C° 0 mm 3 mps 721 mmHg 86%
    03:00 -1°C° 0 mm 3 mps 720 mmHg 87%
    04:00 -1°C° 0 mm 3 mps 720 mmHg 87%
    05:00 -1°C° 0 mm 2 mps 720 mmHg 88%
    06:00 -1°C° 0 mm 2 mps 720 mmHg 89%
    07:00 -1°C° 0 mm 2 mps 720 mmHg 89%
    08:00 0°C° 0 mm 3 mps 720 mmHg 84%
    09:00 +1°C° 0 mm 3 mps 720 mmHg 79%
    10:00 +1°C° 0 mm 4 mps 721 mmHg 73%
    11:00 +3°C° 0 mm 4 mps 720 mmHg 71%
    12:00 +3°C° 0 mm 4 mps 720 mmHg 69%
    13:00 +3°C° 0 mm 4 mps 720 mmHg 66%
    14:00 +2°C° 0 mm 3 mps 720 mmHg 71%
    15:00 +1°C° 0 mm 3 mps 720 mmHg 76%
    16:00 0°C° 0 mm 3 mps 720 mmHg 80%
    17:00 0°C° 0 mm 3 mps 719 mmHg 81%
    18:00 -1°C° 0 mm 3 mps 719 mmHg 82%
    19:00 -1°C° 0 mm 3 mps 719 mmHg 83%
    20:00 -1°C° 0.2 mm 3 mps 719 mmHg 83%
    21:00 -1°C° 0.2 mm 4 mps 719 mmHg 84%
    22:00 -1°C° 0.2 mm 4 mps 720 mmHg 84%
    23:00 -1°C° 0.1 mm 4 mps 720 mmHg 85%

    Day after tomorrow, 20 November, Monday

    Time Temperature Precipitation Wind Pressure Humidity
    00:00 -2°C° 0.1 mm 4 mps 720 mmHg 86%
    01:00 -1°C° 0.1 mm 3 mps 720 mmHg 87%
    02:00 -2°C° 0 mm 3 mps 720 mmHg 87%
    03:00 -2°C° 0 mm 3 mps 720 mmHg 87%
    04:00 -2°C° 0 mm 3 mps 720 mmHg 86%
    05:00 -3°C° 0.1 mm 4 mps 720 mmHg 85%
    06:00 -2°C° 0.1 mm 4 mps 721 mmHg 85%
    07:00 -2°C° 0.1 mm 5 mps 721 mmHg 84%
    08:00 -1°C° 0.1 mm 5 mps 721 mmHg 81%
    09:00 -1°C° 0.1 mm 6 mps 721 mmHg 77%
    10:00 -1°C° 0.1 mm 6 mps 722 mmHg 74%
    11:00 +1°C° 0.1 mm 6 mps 722 mmHg 74%
    12:00 +1°C° 0.1 mm 5 mps 722 mmHg 74%
    13:00 +1°C° 0.1 mm 5 mps 722 mmHg 73%
    14:00 0°C° 0.1 mm 4 mps 722 mmHg 77%
    15:00 +1°C° 0.1 mm 3 mps 722 mmHg 81%
    16:00 +1°C° 0.1 mm 2 mps 722 mmHg 85%
    17:00 +1°C° 0.1 mm 2 mps 722 mmHg 86%
    18:00 +1°C° 0.1 mm 2 mps 722 mmHg 87%
    19:00 -1°C° 0.1 mm 2 mps 722 mmHg 88%
    20:00 -1°C° 0.1 mm 2 mps 722 mmHg 88%
    21:00 +1°C° 0.1 mm 2 mps 722 mmHg 88%
    22:00 +1°C° 0.1 mm 2 mps 722 mmHg 87%
    23:00 +1°C° 0.1 mm 2 mps 722 mmHg 87%

    21 November, Tuesday

    Time Temperature Precipitation Wind Pressure Humidity
    00:00 +1°C° 0.1 mm 2 mps 721 mmHg 87%
    01:00 +1°C° 0.1 mm 2 mps 720 mmHg 87%
    02:00 0°C° 0.3 mm 3 mps 719 mmHg 87%
    03:00 +1°C° 0.3 mm 3 mps 719 mmHg 86%
    04:00 0°C° 0.3 mm 4 mps 718 mmHg 86%
    05:00 0°C° 0.3 mm 4 mps 718 mmHg 87%
    06:00 0°C° 0.3 mm 4 mps 717 mmHg 87%
    07:00 +1°C° 0.3 mm 4 mps 717 mmHg 87%
    08:00 +1°C° 0.5 mm 4 mps 717 mmHg 86%
    09:00 +3°C° 0.5 mm 4 mps 717 mmHg 86%
    10:00 +3°C° 0.5 mm 5 mps 717 mmHg 86%
    11:00 +3°C° 0.5 mm 5 mps 717 mmHg 86%
    12:00 +5°C° 0.5 mm 5 mps 717 mmHg 87%
    13:00 +5°C° 0.5 mm 5 mps 717 mmHg 87%
    14:00 +5°C° 0.4 mm 4 mps 718 mmHg 89%
    15:00 +4°C° 0.4 mm 4 mps 718 mmHg 92%
    16:00 +4°C° 0.4 mm 3 mps 719 mmHg 94%
    17:00 +3°C° 0.4 mm 3 mps 719 mmHg 94%
    18:00 +4°C° 0.4 mm 2 mps 720 mmHg 95%
    19:00 +4°C° 0.4 mm 1 mps 720 mmHg 95%
    20:00 +4°C° 0.2 mm 1 mps 720 mmHg 95%
    21:00 +4°C° 0.2 mm 1 mps 721 mmHg 95%
    22:00 +3°C° 0.2 mm 0 mps 721 mmHg 96%
    23:00 +3°C° 0.1 mm 0 mps 721 mmHg 95%

    22 November, Wednesday

    Time Temperature Precipitation Wind Pressure Humidity
    00:00 +3°C° 0.1 mm 0 mps 722 mmHg 95%
    01:00 +4°C° 0.1 mm 1 mps 722 mmHg 95%
    02:00 +4°C° 0.1 mm 1 mps 721 mmHg 95%
    03:00 +4°C° 0.1 mm 1 mps 721 mmHg 95%
    04:00 +4°C° 0.1 mm 1 mps 721 mmHg 95%
    05:00 +4°C° 0.1 mm 1 mps 721 mmHg 94%
    06:00 +4°C° 0.1 mm 2 mps 721 mmHg 94%
    07:00 +4°C° 0.1 mm 2 mps 721 mmHg 94%
    08:00 +5°C° 0.2 mm 2 mps 722 mmHg 93%
    09:00 +6°C° 0.2 mm 2 mps 722 mmHg 91%
    10:00 +7°C° 0.2 mm 2 mps 722 mmHg 90%
    11:00 +7°C° 0 mm 2 mps 723 mmHg 87%
    12:00 +8°C° 0 mm 2 mps 723 mmHg 85%
    13:00 +8°C° 0 mm 3 mps 723 mmHg 83%
    14:00 +7°C° 0 mm 2 mps 723 mmHg 85%
    15:00 +6°C° 0 mm 2 mps 723 mmHg 87%
    16:00 +6°C° 0 mm 2 mps 723 mmHg 90%
    17:00 +5°C° 0 mm 2 mps 724 mmHg 89%
    18:00 +5°C° 0 mm 2 mps 724 mmHg 89%
    19:00 +5°C° 0 mm 2 mps 724 mmHg 88%
    20:00 +4°C° 0 mm 2 mps 725 mmHg 88%
    21:00 +5°C° 0 mm 1 mps 725 mmHg 87%
    22:00 +5°C° 0 mm 1 mps 725 mmHg 87%
    23:00 +5°C° 0 mm 1 mps 725 mmHg 87%

    23 November, Thursday

    Time Temperature Precipitation Wind Pressure Humidity
    00:00 +5°C° 0 mm 1 mps 725 mmHg 87%
    01:00 +4°C° 0 mm 1 mps 725 mmHg 87%
    02:00 +3°C° 0 mm 2 mps 725 mmHg 88%
    03:00 +3°C° 0 mm 2 mps 725 mmHg 88%
    04:00 +3°C° 0 mm 2 mps 725 mmHg 89%
    05:00 +3°C° 0 mm 2 mps 726 mmHg 89%
    06:00 +3°C° 0 mm 2 mps 726 mmHg 89%
    07:00 +2°C° 0 mm 3 mps 726 mmHg 89%
    08:00 +3°C° 0 mm 3 mps 726 mmHg 85%
    09:00 +4°C° 0 mm 3 mps 726 mmHg 82%
    10:00 +5°C° 0 mm 3 mps 726 mmHg 79%
    11:00 +7°C° 0 mm 3 mps 726 mmHg 78%
    12:00 +7°C° 0 mm 3 mps 726 mmHg 77%
    13:00 +7°C° 0 mm 4 mps 726 mmHg 77%
    14:00 +6°C° 0 mm 4 mps 726 mmHg 80%
    15:00 +5°C° 0 mm 3 mps 726 mmHg 84%
    16:00 +5°C° 0 mm 3 mps 726 mmHg 88%
    17:00 +4°C° 0 mm 3 mps 726 mmHg 89%
    18:00 +4°C° 0 mm 3 mps 726 mmHg 90%
    19:00 +4°C° 0 mm 3 mps 726 mmHg 90%
    20:00 +4°C° 0 mm 3 mps 726 mmHg 91%
    21:00 +4°C° 0 mm 3 mps 727 mmHg 91%
    22:00 +4°C° 0 mm 3 mps 727 mmHg 91%
    23:00 +4°C° 0 mm 3 mps 727 mmHg 91%
    Show more